CT1OY Oeiras PT current weather conditions

sailwx.info

Wind from 073

Air temperature 13.9° C
Dewpoint 10.9° C

Last reported at 2016-Feb-09 00:46 UTC.
Time now 2016-Feb-09 01:29 UTC

Location: N 38°44' W 009°17'.
View on Google Maps.

See reports from other nearby stations

  
Tides and Currents Weather Stations Pressure Air Temp Water Temp Dewpoint Dewpoint Depression Visibility Wind Speed Wind Dir Waves Ship Positions
date/time (UTC)wind fromknots sea level pressurealtimeterstation pressurevisibilityair tempwater tempwave heightnotes
2016-Feb-09 00:46 073 13.9
2016-Feb-09 00:36 256 13.9
2016-Feb-09 00:26 276 0 13.3
2016-Feb-09 00:06 240 13.3
2016-Feb-08 23:36 256 13.9
2016-Feb-08 23:26 287 13.9
2016-Feb-08 23:06 256 5 13.9
2016-Feb-08 22:56 276 2 13.9
2016-Feb-08 22:46 270 3 13.9
2016-Feb-08 22:36 266 13.9
2016-Feb-08 22:06 238 14.4
2016-Feb-08 21:46 223 14.4
2016-Feb-08 21:36 245 14.4
2016-Feb-08 21:26 209 14.4
2016-Feb-08 21:06 141 14.4
2016-Feb-08 20:46 115 14.4
2016-Feb-08 20:36 087 14.4
2016-Feb-08 20:16 054 14.4
2016-Feb-08 20:06 148 14.4
2016-Feb-08 19:56 229 14.4
2016-Feb-08 19:46 125 14.4
2016-Feb-08 19:06 229 14.4
2016-Feb-08 18:56 200 14.4
2016-Feb-08 18:36 034 14.4
2016-Feb-08 18:16 274 14.4
2016-Feb-08 17:56 095 14.4
2016-Feb-08 17:46 295 14.4
2016-Feb-08 17:36 233 14.4
2016-Feb-08 17:26 121 15.0
2016-Feb-08 17:06 243 15.0
2016-Feb-08 16:56 217 15.0
2016-Feb-08 16:36 219 15.6
2016-Feb-08 16:26 254 15.6
2016-Feb-08 15:46 250 16.1
2016-Feb-08 15:26 200 15.6
2016-Feb-08 15:16 117 15.6
2016-Feb-08 15:06 131 15.6
2016-Feb-08 14:56 257 16.1
2016-Feb-08 14:46 134 16.1
2016-Feb-08 14:36 191 16.7
2016-Feb-08 14:26 151 16.1
2016-Feb-08 14:16 253 16.1
2016-Feb-08 13:56 228 15.6
2016-Feb-08 13:46 277 0 15.0
2016-Feb-08 13:36 246 15.0
2016-Feb-08 13:16 246 14.4
2016-Feb-08 13:06 063 14.4
2016-Feb-08 12:36 287 13.3
2016-Feb-08 12:26 281 13.3
2016-Feb-08 12:06 235 13.9
2016-Feb-08 10:56 297 12.8
2016-Feb-08 10:46 283 13.3
2016-Feb-08 10:36 271 13.9
2016-Feb-08 10:26 224 14.4
2016-Feb-08 10:16 281 14.4
2016-Feb-08 09:56 263 13.9
2016-Feb-08 09:46 247 13.9
2016-Feb-08 09:36 224 13.9
2016-Feb-08 09:16 180 13.3
2016-Feb-08 09:06 253 13.3
2016-Feb-08 08:46 266 13.3
2016-Feb-08 08:26 288 13.3
2016-Feb-08 07:56 248 13.3
2016-Feb-08 07:46 276 13.3
2016-Feb-08 07:26 272 13.3
2016-Feb-08 07:16 272 13.3
2016-Feb-08 07:06 263 12.8
2016-Feb-08 06:26 252 13.3
2016-Feb-08 06:06 279 13.3
2016-Feb-08 05:56 276 13.3
2016-Feb-08 05:46 280 13.3
2016-Feb-08 05:36 243 13.3
2016-Feb-08 05:26 306 13.3
2016-Feb-08 04:16 250 13.3
2016-Feb-08 04:06 243 13.3
2016-Feb-08 03:56 253 13.3
2016-Feb-08 03:36 274 13.3
2016-Feb-08 03:26 277 13.3
2016-Feb-08 03:06 281 13.3
2016-Feb-08 02:46 273 13.3
2016-Feb-08 02:36 264 12.8
2016-Feb-08 02:16 276 12.8
2016-Feb-08 02:06 267 12.8
2016-Feb-08 01:26 257 12.8
2016-Feb-08 01:06 269 12.8
2016-Feb-08 00:56 255 12.8
2016-Feb-08 00:26 248 12.2
2016-Feb-08 00:16 248 12.2
2016-Feb-08 00:06 276 12.2
2016-Feb-07 23:56 290 12.2
2016-Feb-07 23:46 254 12.2
2016-Feb-07 22:56 269 11.7
2016-Feb-07 22:46 268 12.2
2016-Feb-07 22:36 280 12.2
2016-Feb-07 22:26 260 12.2
2016-Feb-07 21:16 229 12.2
2016-Feb-07 21:06 248 12.2
2016-Feb-07 20:46 258 12.2
2016-Feb-07 20:36 269 12.2
2016-Feb-07 20:26 267 12.2
2016-Feb-07 20:16 252 12.2
2016-Feb-07 20:06 255 12.2
2016-Feb-07 19:46 259 12.2
2016-Feb-07 19:36 274 12.2
2016-Feb-07 19:16 253 12.8
2016-Feb-07 18:56 243 13.3
2016-Feb-07 18:26 253 13.3
2016-Feb-07 18:06 281 13.3
2016-Feb-07 17:56 257 13.3
2016-Feb-07 17:46 250 13.3
2016-Feb-07 17:36 270 13.9
2016-Feb-07 17:16 269 14.4
2016-Feb-07 17:06 278 14.4
2016-Feb-07 16:46 290 14.4
2016-Feb-07 16:26 264 14.4
2016-Feb-07 16:06 322 14.4
2016-Feb-07 15:46 287 15.0
2016-Feb-07 15:36 294 15.0
2016-Feb-07 15:26 299 15.0
2016-Feb-07 15:16 290 0 15.0
2016-Feb-07 15:06 269 15.0
2016-Feb-07 14:36 290 14.4
2016-Feb-07 14:26 306 15.0
2016-Feb-07 14:16 254 5 gusting 10 15.6
2016-Feb-07 14:06 214 15.6
2016-Feb-07 13:36 240 2 15.6
2016-Feb-07 13:26 276 15.6
2016-Feb-07 13:16 236 15.6
2016-Feb-07 13:06 295 0 15.6
2016-Feb-07 12:56 283 0 15.6
2016-Feb-07 12:36 305 15.6
2016-Feb-07 12:16 294 15.6
2016-Feb-07 12:06 285 15.0
2016-Feb-07 11:56 242 15.0
2016-Feb-07 11:46 297 15.0
2016-Feb-07 11:36 266 14.4
2016-Feb-07 11:26 255 14.4
2016-Feb-07 10:26 304 14.4
2016-Feb-07 10:16 273 14.4
2016-Feb-07 10:06 255 13.9
2016-Feb-07 09:56 317 13.9
2016-Feb-07 09:46 264 1 13.3
2016-Feb-07 09:06 285 12.8
2016-Feb-07 08:56 318 12.2
2016-Feb-07 08:36 300 12.2
2016-Feb-07 08:06 287 0 12.2
2016-Feb-07 07:56 280 12.2
2016-Feb-07 07:26 308 12.2
2016-Feb-07 07:16 296 12.2
2016-Feb-07 07:06 298 12.2
2016-Feb-07 06:46 281 0 gusting 10 12.2
2016-Feb-07 06:36 287 12.2
2016-Feb-07 06:16 273 12.2
2016-Feb-07 06:06 300 12.2
2016-Feb-07 05:56 308 12.2
2016-Feb-07 05:46 297 12.2
2016-Feb-07 05:16 274 12.2
2016-Feb-07 04:06 284 12.2
2016-Feb-07 03:46 251 4 12.2
2016-Feb-07 03:26 276 5 12.2
2016-Feb-07 03:16 248 4 12.2
2016-Feb-07 02:36 271 12.2
2016-Feb-07 02:26 270 1 12.2
2016-Feb-07 02:16 301 1 12.2
2016-Feb-07 02:06 280 4 12.2